FW2218 Weather Reports


time (UTC)temp
F
wind
direction
speed
knots
gust
knots
rain 1hr
in
rain 24hr
in
rain mn
in
humidity
%
barometer
mb
20260505193103 71 298 7.8 18.2 0.00 0.00 0.00 54 1007.4
20260505191605 70 301 7.8 15.6 0.00 0.00 0.00 55 1007.5
20260505190029 70 298 7.0 15.6 0.00 0.00 0.00 55 1007.6
20260505181529 69 294 7.8 18.2 0.00 0.00 0.00 58 1007.8
20260505174530 67 298 7.8 15.6 0.00 0.00 0.00 60 1007.8
20260505173103 67 294 7.0 15.6 0.00 0.00 0.00 60 1007.9
20260505171531 67 296 6.1 13.9 0.00 0.00 0.00 61 1007.8
20260505170106 66 294 7.0 16.5 0.00 0.00 0.00 62 1007.8
20260505164530 65 291 7.0 18.2 0.00 0.00 0.00 64 1007.8
20260505163032 64 291 7.0 15.6 0.00 0.00 0.00 65 1007.9
20260505161532 64 293 6.1 13.9 0.00 0.00 0.00 66 1007.9
20260505151533 62 291 5.2 13.0 0.00 0.00 0.00 70 1007.6
20260505124532 58 284 4.3 9.6 0.00 0.00 0.00 76 1006.3
20260505123032 58 285 4.3 11.3 0.00 0.00 0.00 75 1006.0
20260505121608 59 283 3.5 8.7 0.00 0.00 0.00 74 1005.9
20260505120030 60 280 4.3 9.6 0.00 0.00 0.00 72 1005.8
20260505114528 61 280 7.0 13.9 0.00 0.00 0.00 72 1005.7
20260505111528 60 281 3.5 7.0 0.00 0.00 0.00 75 1005.5
20260505101613 63 282 3.5 7.8 0.00 0.00 0.00 69 1005.1
20260505100108 64 267 5.2 13.0 0.00 0.00 0.00 67 1004.9
20260505093104 65 265 7.8 17.4 0.00 0.00 0.00 67 1004.7
20260505091530 65 272 7.8 15.6 0.00 0.00 0.00 66 1004.6
20260505090106 65 268 7.8 15.6 0.00 0.00 0.00 66 1004.5
20260505084532 65 269 7.0 13.9 0.00 0.00 0.00 66 1004.4
20260505083031 65 272 5.2 13.9 0.00 0.00 0.00 67 1004.4
20260505081541 66 279 5.2 12.2 0.00 0.00 0.00 65 1004.4
20260505080034 65 273 5.2 13.0 0.00 0.00 0.00 66 1004.4
20260505074603 65 279 3.5 13.0 0.00 0.00 0.00 68 1004.3
20260505073036 64 277 3.5 7.8 0.00 0.00 0.00 69 1004.2
20260505071535 65 291 3.5 7.0 0.00 0.00 0.00 68 1004.1
20260505064528 67 314 0.9 5.2 0.00 0.00 0.00 61 1003.9
20260505063037 68 278 5.2 13.0 0.00 0.00 0.00 60 1003.7
20260505061533 68 277 7.0 12.2 0.00 0.00 0.00 59 1003.6
20260505060040 69 282 7.0 14.8 0.00 0.00 0.00 56 1003.6
20260505053032 69 274 5.2 9.6 0.00 0.00 0.00 55 1003.6
20260505051534 70 277 3.5 15.6 0.00 0.00 0.00 53 1003.5
20260505050107 70 269 3.5 11.3 0.00 0.00 0.00 51 1003.4
20260505041530 72 273 6.1 15.6 0.00 0.00 0.00 49 1002.5
20260505040046 72 270 7.8 15.6 0.00 0.00 0.00 49 1002.3
20260505034529 72 270 7.8 14.8 0.00 0.00 0.00 49 1002.1
20260505033031 72 268 8.7 17.4 0.00 0.00 0.00 50 1001.8
20260505031644 72 270 7.8 16.5 0.00 0.00 0.00 53 1001.8
20260505030107 73 279 7.0 13.9 0.00 0.00 0.00 52 1001.6
20260505024532 73 285 6.1 14.8 0.00 0.00 0.00 52 1001.5
20260505023031 74 291 4.3 12.2 0.00 0.00 0.00 52 1001.5
20260505021531 75 289 5.2 11.3 0.00 0.00 0.00 51 1001.5
20260505014537 76 292 5.2 14.8 0.00 0.00 0.00 48 1001.4
20260505013031 77 291 6.1 15.6 0.00 0.00 0.00 47 1001.4
20260505011537 77 297 6.1 14.8 0.00 0.00 0.00 47 1001.4
20260505010033 78 301 7.0 15.6 0.00 0.00 0.00 45 1001.4
20260505004536 78 297 7.0 14.8 0.00 0.00 0.00 45 1001.4
20260505001532 79 299 7.8 16.5 0.00 0.00 0.00 44 1001.4
20260505000032 79 296 7.0 15.6 0.00 0.00 0.00 44 1001.5
20260504234532 80 300 7.0 15.6 0.00 0.00 0.00 44 1001.4
20260504233032 80 302 7.0 18.2 0.00 0.00 0.00 44 1001.4
20260504231529 80 299 7.8 15.6 0.00 0.00 0.00 43 1001.5
20260504230031 80 292 7.0 16.5 0.00 0.00 0.00 43 1001.7
20260504224531 81 297 7.0 12.2 0.00 0.00 0.00 42 1001.8
20260504223102 81 297 5.2 12.2 0.00 0.00 0.00 42 1002.1
20260504221531 82 294 6.1 12.2 0.00 0.00 0.00 41 1002.2
20260504214531 81 294 4.3 11.3 0.00 0.00 0.00 42 1002.4
20260504213112 81 299 6.1 13.0 0.00 0.00 0.00 42 1002.6
20260504210030 81 294 5.2 11.3 0.00 0.00 0.00 43 1002.8
20260504203052 80 296 5.2 12.2 0.00 0.00 0.00 43 1003.1
20260504201529 79 290 6.1 12.2 0.00 0.00 0.00 44 1003.3
20260504200146 78 291 6.1 13.0 0.00 0.00 0.00 45 1003.5
20260504194646 78 296 6.1 13.9 0.00 0.00 0.00 46 1003.5